Date String (YYYY-MM-DD hh:mm:ss) UTC,Instrument flags,absolute air pressure of the measurement (hPa),sample flow rate (lpm),inlet stack bypass flow (lpm),air temperature of the measurement (°C),ambient temperature measured by the external sensor (°C),aerosol sample conditioner tube jacket temperature (°C),OPC LED temperature (°C),internal box temperature (°C),relative humidity of the measurement (%),span deviation,mass concentration of particles derived from Lorenz-Mie calculation of OPC scattering (μg/m³),mass concentration of particles derived from Lorenz-Mie calculation of OPC scattering (μg/m³),mass concentration of particles derived from Lorenz-Mie calculation of OPC scattering (μg/m³)
DateTimeUTC,F1_M11,P_M11,Q1_M11,Q2_M11,T1_M11,T2_M11,T3_M11,T4_M11,T5_M11,U1_M11,ZSPAN_M11,X0_M11,X2_M11,X1_M11
2023-08-09 19:00:00,SystemResetWarning,0831.1,5.00,000.00,028.9,025.9,000.0,037.4,030.4,23.3,0000.0,0011.11,0005.40,0004.70
2023-08-09 19:01:00,SystemResetWarning,0831.1,5.00,000.00,028.9,026.4,000.0,037.4,030.5,23.3,0000.0,0011.28,0005.34,0004.68
2023-08-09 19:02:00,SystemResetWarning,0831.1,4.99,000.00,029.0,026.8,000.0,037.4,030.6,23.4,0000.0,0011.12,0005.32,0004.67
2023-08-09 19:03:00,SystemResetWarning,0831.2,5.00,000.00,029.0,027.1,000.0,037.5,030.7,23.1,0000.0,0011.07,0005.30,0004.66
2023-08-09 19:04:00,SystemResetWarning,0831.1,5.00,000.00,029.0,027.4,000.0,037.5,030.8,23.2,0000.0,0010.96,0005.28,0004.66
2023-08-09 19:05:00,SystemResetWarning,0831.1,5.00,000.00,029.1,027.6,000.0,037.5,030.9,23.0,0000.0,0011.36,0005.25,0004.65
2023-08-09 19:06:00,SystemResetWarning,0831.0,5.00,000.00,029.1,027.8,000.0,037.5,030.9,22.8,0000.0,0011.19,0005.20,0004.63
2023-08-09 19:07:00,SystemResetWarning,0831.1,5.00,000.00,029.2,028.0,000.0,037.6,031.0,23.3,0000.0,0010.99,0005.18,0004.62
2023-08-09 19:08:00,SystemResetWarning,0831.1,4.98,000.00,029.2,027.1,000.0,037.5,030.9,23.4,0000.0,0011.02,0005.18,0004.63
2023-08-09 19:09:00,SystemResetWarning,0831.1,5.01,000.00,029.2,025.8,000.0,037.4,030.7,23.7,0000.0,0010.73,0005.17,0004.61
2023-08-09 19:10:00,SystemResetWarning,0830.9,5.01,000.00,029.1,025.9,000.0,037.3,030.6,24.1,0000.0,0009.83,0005.15,0004.61
2023-08-09 19:11:00,SystemResetWarning,0831.0,4.99,000.00,029.1,026.1,000.0,037.4,030.5,23.5,0000.0,0009.37,0005.12,0004.60
2023-08-09 19:12:00,SystemResetWarning,0831.1,5.00,000.00,029.1,026.5,000.0,037.4,030.6,24.0,0000.0,0008.88,0005.11,0004.61
2023-08-09 19:13:00,SystemResetWarning,0831.1,5.01,000.00,029.1,026.8,000.0,037.5,030.7,23.3,0000.0,0009.05,0005.10,0004.61
2023-08-09 19:14:00,SystemResetWarning,0831.2,5.00,000.00,029.1,027.1,000.0,037.5,030.8,23.6,0000.0,0009.08,0005.09,0004.60
2023-08-09 19:15:00,SystemResetWarning,0831.1,5.00,000.00,029.1,027.4,000.0,037.5,030.9,22.9,0000.0,0009.86,0005.08,0004.58
2023-08-09 19:16:00,SystemResetWarning,0831.1,5.00,000.00,029.2,027.7,000.0,037.6,030.9,22.9,0000.0,0009.49,0005.09,0004.57
2023-08-09 19:17:00,SystemResetWarning,0831.2,5.00,000.00,029.2,027.9,000.0,037.6,031.0,23.1,0000.0,0009.67,0005.09,0004.56
2023-08-09 19:18:00,SystemResetWarning,0831.1,4.99,000.00,029.3,027.2,000.0,037.5,030.9,22.8,0000.0,0009.99,0005.08,0004.56
2023-08-09 19:19:00,SystemResetWarning,0831.0,4.99,000.00,029.2,025.9,000.0,037.4,030.7,23.2,0000.0,0009.71,0005.05,0004.57
2023-08-09 19:20:00,SystemResetWarning,0831.1,5.00,000.00,029.2,025.8,000.0,037.4,030.6,23.6,0000.0,0009.67,0005.04,0004.58
2023-08-09 19:21:00,SystemResetWarning,0831.1,5.02,000.00,029.1,026.1,000.0,037.4,030.5,23.4,0000.0,0009.99,0005.05,0004.57
2023-08-09 19:22:00,SystemResetWarning,0831.1,4.99,000.00,029.1,026.4,000.0,037.5,030.6,24.0,0000.0,0010.23,0005.10,0004.59
2023-08-09 19:23:00,SystemResetWarning,0831.1,4.99,000.00,029.1,026.8,000.0,037.5,030.7,23.8,0000.0,0010.90,0005.16,0004.60
2023-08-09 19:24:00,SystemResetWarning,0831.1,5.01,000.00,029.1,027.1,000.0,037.5,030.8,23.2,0000.0,0011.21,0005.17,0004.60
2023-08-09 19:25:00,SystemResetWarning,0831.1,5.00,000.00,029.2,027.4,000.0,037.6,030.9,23.0,0000.0,0011.12,0005.15,0004.61
2023-08-09 19:26:00,SystemResetWarning,0831.2,5.00,000.00,029.2,027.7,000.0,037.6,030.9,22.9,0000.0,0010.49,0005.16,0004.64
2023-08-09 19:27:00,SystemResetWarning,0831.1,4.99,000.00,029.2,027.8,000.0,037.6,031.0,22.9,0000.0,0010.29,0005.14,0004.66
2023-08-09 19:28:00,SystemResetWarning,0831.0,4.99,000.00,029.2,026.5,000.0,037.5,030.8,22.9,0000.0,0010.36,0005.11,0004.65
2023-08-09 19:29:00,SystemResetWarning,0830.9,5.02,000.00,029.2,025.7,000.0,037.4,030.6,22.8,0000.0,0011.01,0005.12,0004.66
2023-08-09 19:30:00,SystemResetWarning,0830.9,5.01,000.00,029.1,025.9,000.0,037.4,030.6,23.6,0000.0,0011.04,0005.11,0004.66
2023-08-09 19:31:00,SystemResetWarning,0830.9,4.99,000.00,029.1,026.2,000.0,037.5,030.5,23.5,0000.0,0011.13,0005.13,0004.66
2023-08-09 19:32:00,SystemResetWarning,0830.9,5.00,000.00,029.1,026.5,000.0,037.5,030.6,22.9,0000.0,0010.85,0005.13,0004.67
2023-08-09 19:33:00,SystemResetWarning,0831.0,5.00,000.00,029.1,026.9,000.0,037.5,030.7,23.1,0000.0,0011.01,0005.12,0004.67
2023-08-09 19:34:00,SystemResetWarning,0831.0,5.00,000.00,029.1,027.2,000.0,037.6,030.8,23.0,0000.0,0010.72,0005.10,0004.67
2023-08-09 19:35:00,SystemResetWarning,0831.0,4.99,000.00,029.2,027.5,000.0,037.6,030.9,23.0,0000.0,0011.49,0005.07,0004.68
2023-08-09 19:36:00,SystemResetWarning,0830.9,4.99,000.00,029.2,027.7,000.0,037.6,031.0,22.7,0000.0,0012.09,0005.12,0004.67
2023-08-09 19:37:00,SystemResetWarning,0830.9,4.99,000.00,029.3,027.5,000.0,037.6,031.0,22.6,0000.0,0012.10,0005.12,0004.67
2023-08-09 19:38:00,SystemResetWarning,0830.9,5.00,000.00,029.2,025.7,000.0,037.5,030.7,22.5,0000.0,0012.10,0005.12,0004.66
2023-08-09 19:39:00,SystemResetWarning,0830.9,5.02,000.00,029.1,024.7,000.0,037.3,030.4,23.0,0000.1,0012.11,0005.16,0004.68
2023-08-09 19:40:00,SystemResetWarning,0830.9,5.01,000.00,029.0,024.9,000.0,037.3,030.3,23.0,0000.8,0011.40,0005.19,0004.69
2023-08-09 19:41:00,SystemResetWarning,0830.8,5.00,000.00,028.9,025.3,000.0,037.4,030.2,23.2,0000.0,0011.51,0005.22,0004.70
2023-08-09 19:42:00,SystemResetWarning,0830.8,5.00,000.00,028.9,025.8,000.0,037.4,030.3,23.1,0000.0,0011.86,0005.24,0004.71
2023-08-09 19:43:00,SystemResetWarning,0830.8,5.00,000.00,028.9,026.2,000.0,037.4,030.5,23.1,0000.0,0012.18,0005.24,0004.71
2023-08-09 19:44:00,SystemResetWarning,0830.9,5.00,000.00,029.0,026.6,000.0,037.4,030.6,23.3,0000.0,0012.29,0005.25,0004.72
2023-08-09 19:45:00,SystemResetWarning,0830.8,5.00,000.00,029.0,027.0,000.0,037.5,030.7,23.5,0000.0,0012.44,0005.29,0004.72
2023-08-09 19:46:00,SystemResetWarning,0830.8,5.00,000.00,029.0,027.3,000.0,037.5,030.8,23.7,0000.0,0010.93,0005.31,0004.71
2023-08-09 19:47:00,SystemResetWarning,0830.9,5.00,000.00,029.1,027.5,000.0,037.5,030.8,24.1,0000.0,0010.43,0005.26,0004.72
2023-08-09 19:48:00,SystemResetWarning,0830.8,4.99,000.00,029.1,027.8,000.0,037.5,030.9,23.8,0000.0,0010.54,0005.27,0004.72
2023-08-09 19:49:00,SystemResetWarning,0830.9,5.00,000.00,029.2,027.9,000.0,037.6,031.0,23.4,0000.0,0010.60,0005.30,0004.72
2023-08-09 19:50:00,SystemResetWarning,0830.9,5.00,000.00,029.2,028.0,000.0,037.6,031.0,23.6,0000.0,0010.63,0005.30,0004.71
2023-08-09 19:51:00,SystemResetWarning,0830.8,4.99,000.00,029.2,026.5,000.0,037.5,030.8,23.7,0000.0,0011.03,0005.25,0004.70
2023-08-09 19:52:00,SystemResetWarning,0830.8,5.01,000.00,029.1,024.9,000.0,037.3,030.5,24.3,0000.0,0011.24,0005.22,0004.69
2023-08-09 19:53:00,SystemResetWarning,0830.8,5.01,000.00,029.1,024.9,000.0,037.3,030.4,23.8,0000.0,0010.83,0005.19,0004.68
2023-08-09 19:54:00,SystemResetWarning,0830.8,5.02,000.00,029.0,025.2,000.0,037.3,030.3,23.4,0000.0,0010.46,0005.17,0004.68
2023-08-09 19:55:00,SystemResetWarning,0830.9,5.00,000.00,028.9,025.7,000.0,037.4,030.4,24.1,0000.0,0009.94,0005.14,0004.68
2023-08-09 19:56:00,SystemResetWarning,0830.9,5.00,000.00,028.9,026.1,000.0,037.4,030.5,23.7,0000.0,0010.51,0005.10,0004.69
2023-08-09 19:57:00,SystemResetWarning,0830.9,5.00,000.00,029.0,026.5,000.0,037.4,030.6,24.1,0000.0,0010.84,0005.07,0004.69
2023-08-09 19:58:00,SystemResetWarning,0830.9,5.00,000.00,029.0,026.9,000.0,037.4,030.7,23.8,0000.0,0010.84,0005.08,0004.68
2023-08-09 19:59:00,SystemResetWarning,0830.9,4.99,000.00,029.0,027.2,000.0,037.4,030.8,23.3,0000.0,0010.85,0005.07,0004.67
